Chapel Hill, NC

10:23 AM EDT on October 22, 2017 (GMT -0400)
Williams

Weather History for KIGX - April, 2014

Change the Weather History Date:

Thursday, April 24, 2014

  Actual Average Record
Temperature  
Mean Temperature 56 °F -  
Max Temperature 71 °F 73 °F 92 °F (1980)
Min Temperature 41 °F 48 °F 29 °F (1986)
Degree Days  
Heating Degree Days 10    
Growing Degree Days 6 (Base 50)    
Moisture  
Dew Point 35 °F    
Average Humidity 48    
Maximum Humidity 76    
Minimum Humidity 27    
Precipitation  
Precipitation 0.00 in - - ()
Sea Level Pressure  
Sea Level Pressure 30.05 in    
Wind  
Wind Speed 2 mph (NNE)    
Max Wind Speed 8 mph    
Max Gust Speed -    
Visibility 10 miles    
Events      
Averages and records for this station are not official NWS values.
T = Trace of Precipitation, MM = Missing Value Source: NWS Daily Summary

Daily Weather History Graph

Daily Weather History Graph

Search for Another Location

Airport or City:

Trip Planner

Search our weather history database for the weather conditions in past years. The results will help you decide how hot, cold, wet, or windy it might be!

Date:

Astronomy

Apr. 24, 2014 Rise Set
Actual Time 6:31 AM EDT 7:57 PM EDT
Civil Twilight 6:04 AM EDT 8:24 PM EDT
Nautical Twilight 5:32 AM EDT 8:56 PM EDT
Astronomical Twilight 4:58 AM EDT 9:30 PM EDT
Moon 3:32 AM EDT (4/24) 3:20 PM EDT (4/24)
Length of Visible Light 14h 19m
Length of Day
13h 25m
Waning Crescent, 24% of the Moon is Illuminated
Apr 24
Waning Crescent
Apr 29
New
May 6
First Quarter
May 14
Full
May 21
Last Quarter

Hourly Weather History & Observations

Time (EDT) Temp. Windchill Dew Point Humidity Pressure Visibility Wind Dir Wind Speed Gust Speed Precip Events Conditions
12:56 AM 54.0 °F - 30.9 °F 41% 30.01 in 10.0 mi NW 4.6 mph - N/A   Clear
1:56 AM 51.1 °F - 30.9 °F 46% 30.02 in 10.0 mi Calm Calm - N/A   Clear
2:56 AM 46.9 °F - 33.1 °F 59% 30.02 in 10.0 mi Calm Calm - N/A   Clear
3:56 AM 45.0 °F - 34.0 °F 65% 30.04 in 10.0 mi Calm Calm - N/A   Clear
4:56 AM 46.0 °F 44.8 °F 32.0 °F 58% 30.04 in 10.0 mi North 3.5 mph - N/A   Clear
5:56 AM 43.0 °F - 34.0 °F 71% 30.08 in 10.0 mi Calm Calm - N/A   Clear
6:56 AM 41.0 °F - 34.0 °F 76% 30.10 in 10.0 mi Calm Calm - N/A   Clear
7:56 AM 48.9 °F - 39.9 °F 71% 30.12 in 10.0 mi Calm Calm - N/A   Clear
8:56 AM 53.1 °F - 32.0 °F 45% 30.14 in 10.0 mi ENE 8.1 mph - N/A   Clear
9:56 AM 55.9 °F - 33.1 °F 42% 30.15 in 10.0 mi ESE 4.6 mph - N/A   Clear
10:56 AM 59.0 °F - 33.1 °F 38% 30.16 in 10.0 mi Variable 5.8 mph - N/A   Clear
11:56 AM 61.0 °F - 28.0 °F 29% 30.14 in 10.0 mi Variable 3.5 mph - N/A   Clear
12:56 PM 64.0 °F - 30.9 °F 29% 30.10 in 10.0 mi Variable 3.5 mph - N/A   Clear
1:56 PM 66.9 °F - 34.0 °F 30% 30.07 in 10.0 mi Variable 3.5 mph - N/A   Clear
2:56 PM 68.0 °F - 33.1 °F 27% 30.04 in 10.0 mi Variable 3.5 mph - N/A   Clear
3:56 PM 70.0 °F - 34.0 °F 27% 30.01 in 10.0 mi Variable 4.6 mph - N/A   Clear
4:56 PM 70.0 °F - 35.1 °F 28% 29.99 in 10.0 mi Variable 3.5 mph - N/A   Clear
5:56 PM 70.0 °F - 34.0 °F 27% 30.00 in 10.0 mi Variable 5.8 mph - N/A   Clear
6:56 PM 69.1 °F - 35.1 °F 29% 30.00 in 10.0 mi Calm Calm - N/A   Clear
7:56 PM 61.0 °F - 42.1 °F 50% 30.00 in 10.0 mi Calm Calm - N/A   Clear
8:56 PM 55.9 °F - 43.0 °F 62% 30.01 in 10.0 mi Calm Calm - N/A   Clear
9:56 PM 55.0 °F - 43.0 °F 64% 30.01 in 10.0 mi Calm Calm - N/A   Clear
10:56 PM 54.0 °F - 42.1 °F 64% 30.01 in 10.0 mi Calm Calm - N/A   Clear
11:56 PM 52.0 °F - 42.1 °F 69% 30.01 in 10.0 mi Calm Calm - N/A   Clear